Regional Weather Roundup
Issued by NWS Pendleton, OR

Home | Current Version | Previous Version | Text Only | Print | Product List | Glossary On
Versions: 1 2 3 4 5 6 7 8 9 10 11 12 13 14 15 16 17 18 19 20 21 22 23 24 25 26 27 28 29 30 31 32 33 34 35 36 37 38 39 40 41 42 43 44 45 46 47 48 49 50
000
ASUS46 KPDT 240804
RWRPDT
PENDLETON REGIONAL WEATHER ROUNDUP
NATIONAL WEATHER SERVICE PENDLETON OREGON
100 AM PDT SUN MAY 24 2015

NOTE: FAIR INDICATES FEW OR NO CLOUDS BELOW 12,000 FEET WITH NO
SIGNIFICANT WEATHER AND/OR OBSTRUCTIONS TO VISIBILITY.

# INDICATES UNOFFICIAL STATION AND DATA

WAZ520-240910-
EAST SLOPES OF WASHINGTON CASCADES

CITY            SKY/WX      TMP DP  RH  WIND    PRES   REMARKS
#BULLFROG 2SW   N/A         51  46  83  S2      27.69F
#BUMPING DAM    N/A         47  N/A N/A SW2     N/A
#CLE ELUM HS    N/A         53  46  77  N8      30.03F
#CLE ELUM LAKE  N/A         50  46  86  CALM    30.00F
#CLIFFDEL 2NW   N/A         50  45  83  N1      N/A
#GLENWOOD       N/A         50  47  89  CALM    30.03S
#MANASTASH CYN  N/A         52  43  71  CALM    30.01S
#NELSON         N/A         54  48  80  CALM    30.05F
#NELSON 3SW     N/A         46  44  93  CALM    30.23F
#NILE           N/A         54  47  77  SE1     29.30F
#PEOH POINT     N/A         45  44  96  W10     N/A
#RONALD 2NW     N/A         54  20  26  N1      29.95F
#SNOWDEN        N/A         47  42  83  CALM    N/A
#TEANAWAY 4NE   N/A         49  47  93  CALM    N/A
#TROUT LAKE 1NE N/A         52  47  83  CALM    30.04S
$$

WAZ521-240910-
SIMCOE HIGHLANDS

CITY            SKY/WX      TMP DP  RH  WIND    PRES   REMARKS
#CENTERVILLE 4W N/A         53  48  83  W15     29.79R
#CENTERVILLE 1SWN/A         52  46  80  W13     29.99F
#GOLDENDALE     N/A         51  48  89  W6      N/A
#GOLDENDALE 1NE N/A         51  43  74  S2      N/A
#GOLDENDALE 5WNWN/A         51  47  86  W7      30.01F
#GOODNOE HILLS  N/A         55  49  80  W10     N/A
#LYLE 6NE       N/A         52  48  86  W6      30.03S
$$

WAZ026-240910-
KITTITAS VALLEY

CITY            SKY/WX      TMP DP  RH  WIND    PRES   REMARKS
ELLENSBURG AP   CLEAR       57  47  69  NW20    30.01S
#ELLENSBURG CWU N/A         56  47  72  N20     29.92S
#ELLENSBURG 3NE N/A         55  48  77  N13G26  30.01S
#KITTITAS 3S    N/A         55  48  77  W5      29.95S
#THORP 6N       N/A         52  47  83  W16G29  30.00S
$$

WAZ027-240910-
YAKIMA VALLEY

CITY            SKY/WX      TMP DP  RH  WIND    PRES   REMARKS
SUNNYSIDE AP    CLEAR       59  52  78  E8      29.97R
#DONALD 2NE     N/A         64  40  41  W2      28.82S
#GRANDVIEW      N/A         60  51  72  E1      29.96R
#MABTON         N/A         65  51  60  SW3     29.96R
#NACHES 2SW     N/A         58  48  69  W15G26  29.99S
#SELAH 8E       N/A         57  47  69  NE6     N/A
#TERRACE HTS    N/A         63  48  58  CALM    29.90S
#TOPPENISH      N/A         64  48  56  W3      29.85S
#WAPATO 4NE     N/A         64  40  41  W2      28.82S
#WEST VALLEY    N/A         62  47  58  NW13    29.92F
#WHITE SWAN 5E  N/A         58  53  83  E2      29.94R
#WILEY CITY 3W  N/A         57  46  67  CALM    29.96R
$$

WAZ028-240910-
LOWER COLUMBIA BASIN...WASHINGTON

CITY            SKY/WX      TMP DP  RH  WIND    PRES   REMARKS
RICHLAND AWOS   PTCLDY      63  54  72  CALM    29.97R
#BASIN CITY 5SW N/A         60  53  78  CALM    29.96R
#BENTON CITY    N/A         60  50  69  S3      29.86R
#CONNELL 5N     N/A         59  52  78  CALM    29.94R
#CONNELL 5NW    N/A         59  52  78  CALM    29.90R
#ELTOPIA        N/A         60  54  81  CALM    29.91R
#ELTOPIA 6NW    N/A         58  54  87  S2      28.94S
#KAHLOTUS       N/A         62  50  65  W16G26  29.93S
#KENNEWICK      N/A         51  46  83  S2      27.69F
#KENNEWICK 3S   N/A         59  50  72  N7      29.93F
#PASCO-BROADMOORN/A         62  52  70  S1      29.85R
#PATERSON       N/A         60  52  75  S3      29.96R
#PROSSER        N/A         59  49  69  S8      29.94R
#SAGEMOOR 2W    N/A         60  53  78  CALM    29.79S
#TOUCHET 2S     N/A         62  51  67  SW15    29.92S
#WEST PASCO     N/A         62  50  65  S5      29.95R
$$

WAZ029-240910-
FOOTHILLS OF THE BLUES...WASHINGTON

CITY            SKY/WX      TMP DP  RH  WIND    PRES   REMARKS
WALLA WALLA AP  MOCLDY      62  50  65  S9      30.01R
#DAYTON SCHOOL  N/A         63  49  60  NE1     30.05R
#LOWDEN 2SE     N/A         61  52  72  W3      29.95S
#PLEASANT VIEW 1N/A         59  53  80  E3      30.01R
#PRESCOTT       N/A         59  53  80  E2      29.99R
#SUDBURY        N/A         57  N/A N/A CALM    N/A
#WHITMAN COLLEGEN/A         61  51  70  SE2     30.03R
#WAITSBURG 8N   N/A         59  36  42  NE2     29.88R
#WALLA WALLA U  N/A         62  52  70  CALM    29.96
#WHITMAN MISSIONN/A         58  52  80  CALM    29.98R
$$

WAZ030-240910-
BLUE MOUNTAINS...WASHINGTON

CITY            SKY/WX      TMP DP  RH  WIND    PRES   REMARKS
#DIXIE 5SE      N/A         55  48  77  E8      30.00R
$$

ORZ009-041-WAZ024-240910-
COLUMBIA RIVER GORGE

CITY            SKY/WX      TMP DP  RH  WIND    PRES   REMARKS
HOOD RIVER AP   CLEAR       57  48  72  W7      30.10F
THE DALLES AP   CLEAR       60  49  67  NW17G24 30.05S
#ARLINGTON AIRPON/A         56  49  77  W13     29.82S
#CELILO DOT     N/A         62  47  58  SW13    N/A
#MOSIER 1S      N/A         56  44  64  SW8     30.06S
#MURDOCK        N/A         61  52  72  NW26G38 30.06S

$$

ORZ510-240910-
NORTH CENTRAL OREGON

CITY            SKY/WX      TMP DP  RH  WIND    PRES   REMARKS
#CHENOWITH 1W   N/A         53  47  80  W29     N/A
#COW CYN RST AREN/A         49  45  86  S1      N/A
#DUFUR 9E       N/A         51  47  86  W3      30.09S
#GRASS VALLEY 1SN/A         47  44  89  SW5     30.06S
#KENT DOT       N/A         49  41  74  SW10    N/A
#MAUPIN SCHOOL  N/A         55  46  72  W1      30.08R
#MORO SCHOOL    N/A         52  50  93  W7      30.06R
#SHANIKO 5WSW   N/A         47  41  79  S8      N/A
#SHANIKO 4NW    N/A         47  44  89  SW8     30.09S
#TYGH VALLEY 2NEN/A         52  47  83  CALM    30.03S
#WAPANITIA AIRPON/A         53  47  80  W3      30.05S
#WASCO DOT      N/A         56  48  74  SW8     N/A
#WASCO 5NE      N/A         53  47  80  SW9G24  30.01S
$$

ORZ511-240910-
CENTRAL OREGON

CITY            SKY/WX      TMP DP  RH  WIND    PRES   REMARKS
BEND AIRPORT    CLEAR       48  45  89  W7      30.11S
MADRAS AIRPORT  CLEAR       46  45  96  CALM    30.12S
PRINEVILLE AP   CLEAR       48  45  89  W6      30.10R
#BEND 1SW       N/A         47  44  89  W2      N/A
#BEND-AWBREY    N/A         49  45  86  SE2     30.02F
#BEND-KIM LN    N/A         50  45  83  CALM    30.08S
#CROOKED RVR RANN/A         50  45  83  CALM    30.03F
#CULVER         N/A         49  44  83  E2      30.06S
#LAKE BILLY CHINN/A         51  37  59  SE3     30.17S
#POWELL BUTTE 3EN/A         50  45  83  SW1     N/A
#POWELL BUTTE   N/A         48  42  80  SW1     29.72S
#PRINEVILLE 3N  N/A         48  44  86  CALM    29.99R
#WARM SPRINGS   N/A         55  46  72  CALM    30.06S

$$


ORZ509-240910-
EAST SLOPES OF OREGON CASCADES

CITY            SKY/WX      TMP DP  RH  WIND    PRES   REMARKS
#BLUE BOX PASS  N/A         44  -7  11  CALM    N/A
#CAMP SHERMAN   N/A         49  43  80  CALM    30.06S
#LA PINE 4NW    N/A         39  35  85  CALM    30.10R
#SISTERS AIRPOR N/A         45  44  96  CALM    30.17S
#SISTERS ODOT   N/A         44  N/A N/A CALM    N/A
#SISTERS 3N     N/A         48  41  77  CALM    30.10S
#SUNRIVER       N/A         44  42  93  CALM    29.93S
#TUMALO 3W      N/A         48  43  83  CALM    29.93S
#WANOGA BUTTE D N/A         49  37  63  CALM    N/A

$$

ORZ044-240910-
LOWER COLUMBIA BASIN...OREGON

CITY            SKY/WX      TMP DP  RH  WIND    PRES   REMARKS
#BOARDMAN SCHOOLN/A         60  51  72  S9      30.00R
#ECHO 8SW       N/A         61  49  65  W23     30.00S
#IONE SCHOOL    N/A         58  42  55  SW9     29.99S
#IRRIGON 4NW    N/A         59  50  72  S6      N/A
#UMATILLA SCHOOLN/A         57  54  90  CALM    30.07S
#UMATILLA       N/A         59  48  67  CALM    29.91F
$$

ORZ507-240910-
NORTHERN FOOTHILLS OF THE BLUES

CITY            SKY/WX      TMP DP  RH  WIND    PRES   REMARKS
#ADAMS 3WNW     N/A         53  49  86  NW1     29.97S
#ATHENA         N/A         56  49  77  CALM    30.00R
#CAYUSE         N/A         57  50  77  CALM    29.97S
#HELIX SCHOOL   N/A         56  49  77  CALM    29.97R
#HELIX 3N       N/A         55  48  77  W10     29.98S
#HOLDMAN 6E     N/A         55  48  77  N8      29.79R
#M-F FERNDALE   N/A         60  49  67  CALM    29.99R
#M-F GROVE ELEM N/A         60  47  62  CALM    29.99R
#M-FREEWATER 5SEN/A         57  49  75  CALM    30.01R
#PENDLETON DNTN N/A         59  44  57  CALM    29.99S
#PDT AQUATIC CTRN/A         59  45  60  W1      30.03S
#PENDLETON 5NE  N/A         55  50  83  CALM    29.98R
#PDT SUNRIDGE   N/A         55  50  83  CALM    30.02S
#PENDLETON 7NW  N/A         58  49  72  CALM    29.96R
#PILOT ROCK     N/A         54  46  74  CALM    30.03R
#TUTUILLA       N/A         51  48  89  NE1     29.99R
#UMAPINE 2E     N/A         59  53  80  E2      29.97R
#WESTON SCHOOL  N/A         56  47  72  W2      29.99R

$$

ORZ508-240910-
SOUTHERN FOOTHILLS OF THE BLUES

CITY            SKY/WX      TMP DP  RH  WIND    PRES   REMARKS
#AJAX           N/A         53  42  66  S6      29.99S
#CONDON 5W      N/A         48  42  80  W12     30.04S WCI 43
#FOSSIL SCHOOL  N/A         49  46  89  CALM    30.05R
#HEPPNER EOC    N/A         53  48  83  CALM    29.94S
#HEPPNER 4NE    N/A         52  46  80  SW2     30.00S
#LEXINGTON 2SE  N/A         53  48  83  S2      30.00S
#RUGGS 5NE      N/A         51  47  86  S3      30.20S
#RUGGS 2SW      N/A         52  47  83  W3      30.01S

$$

ORZ502-503-240910-
BLUE MOUNTAINS

CITY            SKY/WX      TMP DP  RH  WIND    PRES   REMARKS
MEACHAM         PTCLDY      45  43  93  CALM    30.06S
#BATTLE MTN DOT N/A         49  48  96  CALM    N/A
#HEPPNER 15SE   N/A         44  41  89  CALM    29.98F
#LONG CREEK HS  N/A         49  49  100 CALM    30.02S
#N POWDER DOT   N/A         53  45  74  NE6     N/A
#PIKES PEAK     N/A         54  47  77  S14     27.99S
#TOLLGATE       N/A         48  46  93  CALM    30.02R
#TROY SCHOOL    N/A         56  48  74  CALM    29.80R
#UKIAH          N/A         49  46  89  CALM    30.01S
#WESTON 4E      N/A         54  48  80  CALM    29.93S
$$

ORZ505-240910-
JOHN DAY BASIN

CITY            SKY/WX      TMP DP  RH  WIND    PRES   REMARKS
JOHN DAY        CLEAR       54  49  83  SW6     30.05F
#DAYVILLE SCHOOLN/A         56  49  77  CALM    30.01S
#MITCHELL       N/A         50  49  96  CALM    30.21R
#MONUMENT HS    N/A         53  48  83  SE1     30.03F
#MT. VERNON 5SE N/A         53  48  83  CALM    30.01F
$$

ORZ506-240910-
OCHOCO AND JOHN DAY HIGHLANDS

CITY            SKY/WX      TMP DP  RH  WIND    PRES   REMARKS
#BUCK CREEK DOT N/A         51  51  100 NW8     N/A
#PAULINA SCHOOL N/A         51  45  80  S1      30.03S
#PINE MTN OBS   N/A         44  43  96  NW7     N/A
#PRAIRIE CITY   N/A         47  46  96  CALM    30.08R
#SENECA         N/A         48  N/A N/A N1      N/A
#SENECA 9NW     N/A         48  45  89  CALM    29.94F
$$

ORZ049-240910-
GRANDE RONDE VALLEY

CITY            SKY/WX      TMP DP  RH  WIND    PRES   REMARKS
LA GRANDE       CLEAR       54  43  66  N10     30.01R
#COVE           N/A         50  48  93  CALM    30.02S
#COVE SCHOOL    N/A         50  46  86  E1      30.00S
#ELGIN 3N       N/A         52  44  74  CALM    30.00S
#ELGIN 1E       N/A         51  45  80  CALM    N/A
#ISLAND CITY 4N N/A         53  49  86  CALM    30.17F
#LADD CYN DOT   N/A         56  45  66  SE8     N/A
#LA GRANDE ELEM N/A         60  50  69  W16     30.04R
#UNION 1S       N/A         51  47  86  CALM    29.85R
$$

ORZ050-240910-
WALLOWA COUNTY

CITY            SKY/WX      TMP DP  RH  WIND    PRES   REMARKS
#ENTERPRISE HS  N/A         47  43  86  CALM    30.07R
#IMNAHA SCHOOL  N/A         53  50  89  S1      30.03R
#IMNAHA 10S     N/A         49  45  86  SW3     30.03R
#JOSEPH 3N      N/A         43  37  79  CALM    30.08R
#JOSEPH 3W      N/A         46  40  79  SW2     29.91S
#LOSTINE        N/A         47  43  86  CALM    29.76R
#MT HOWARD 8000 N/A         39  35  85  N5      30.18R
#PROMISE 1S     N/A         49  44  83  CALM    30.06R
#SHEEP RDG 7000 N/A         43  35  73  CALM    30.01R
#WALLOWA SCHOOL N/A         48  45  89  CALM    30.86R



$$



USA.gov is the U.S. government's official web portal to all federal, state and local government web resources and services.